• In Deutschland
  • Länderverzeichnis
  • Für 7 Tage
  • Wassertemperatur
  • Satellitenkarten
  • Wetterkarte
  • Widgets
  • user-avatar
    Anmelden

    Stündliche Wetter Nachiczewan

    Heute, 30 Mai, Dienstag

    Zeit Temperatur Niederschläge Wind Luftdruck Luftfeuchtigkeit
    00:00 +20°C° 0 mm 2 m/S 689 mmHg 54%
    01:00 +20°C° 0 mm 2 m/S 689 mmHg 55%
    02:00 +19°C° 0 mm 2 m/S 689 mmHg 56%
    03:00 +19°C° 0 mm 2 m/S 688 mmHg 59%
    04:00 +20°C° 0 mm 2 m/S 688 mmHg 57%
    05:00 +20°C° 0 mm 2 m/S 688 mmHg 54%
    06:00 +21°C° 0 mm 2 m/S 688 mmHg 52%
    07:00 +24°C° 0 mm 2 m/S 689 mmHg 45%
    08:00 +26°C° 0 mm 2 m/S 689 mmHg 37%
    09:00 +29°C° 0 mm 2 m/S 689 mmHg 30%
    10:00 +30°C° 0 mm 2 m/S 689 mmHg 26%
    11:00 +31°C° 0 mm 2 m/S 689 mmHg 23%
    12:00 +34°C° 0 mm 2 m/S 689 mmHg 19%
    13:00 +34°C° 0 mm 3 m/S 689 mmHg 18%
    14:00 +34°C° 0 mm 3 m/S 689 mmHg 16%
    15:00 +35°C° 0 mm 4 m/S 688 mmHg 15%
    16:00 +34°C° 0 mm 4 m/S 688 mmHg 16%
    17:00 +33°C° 0 mm 4 m/S 688 mmHg 18%
    18:00 +32°C° 0 mm 4 m/S 688 mmHg 19%
    19:00 +29°C° 0 mm 3 m/S 688 mmHg 22%
    20:00 +27°C° 0 mm 2 m/S 688 mmHg 25%
    21:00 +25°C° 0 mm 2 m/S 688 mmHg 28%
    22:00 +24°C° 0 mm 2 m/S 688 mmHg 28%
    23:00 +23°C° 0 mm 2 m/S 688 mmHg 29%

    Morgen, 31 Mai, Mittwoch

    Zeit Temperatur Niederschläge Wind Luftdruck Luftfeuchtigkeit
    00:00 +23°C° 0 mm 2 m/S 687 mmHg 29%
    01:00 +21°C° 0 mm 2 m/S 687 mmHg 31%
    02:00 +21°C° 0 mm 1 m/S 687 mmHg 33%
    03:00 +21°C° 0 mm 1 m/S 687 mmHg 34%
    04:00 +21°C° 0 mm 1 m/S 687 mmHg 35%
    05:00 +22°C° 0 mm 1 m/S 687 mmHg 35%
    06:00 +23°C° 0 mm 1 m/S 687 mmHg 36%
    07:00 +25°C° 0 mm 1 m/S 687 mmHg 31%
    08:00 +27°C° 0 mm 1 m/S 687 mmHg 25%
    09:00 +29°C° 0 mm 2 m/S 687 mmHg 20%
    10:00 +30°C° 0 mm 2 m/S 686 mmHg 18%
    11:00 +31°C° 0 mm 2 m/S 686 mmHg 17%
    12:00 +32°C° 0 mm 2 m/S 686 mmHg 15%
    13:00 +33°C° 0 mm 3 m/S 685 mmHg 15%
    14:00 +33°C° 0 mm 3 m/S 685 mmHg 15%
    15:00 +33°C° 0 mm 3 m/S 684 mmHg 15%
    16:00 +31°C° 0,1 mm 3 m/S 684 mmHg 17%
    17:00 +30°C° 0,1 mm 2 m/S 684 mmHg 18%
    18:00 +30°C° 0,1 mm 2 m/S 683 mmHg 20%
    19:00 +28°C° 0,2 mm 2 m/S 684 mmHg 26%
    20:00 +25°C° 0,2 mm 2 m/S 684 mmHg 31%
    21:00 +23°C° 0,2 mm 2 m/S 684 mmHg 36%
    22:00 +23°C° 0 mm 2 m/S 684 mmHg 38%
    23:00 +21°C° 0 mm 2 m/S 684 mmHg 40%

    übermorgen, 1 Juni, Donnerstag

    Zeit Temperatur Niederschläge Wind Luftdruck Luftfeuchtigkeit
    00:00 +20°C° 0 mm 2 m/S 684 mmHg 42%
    01:00 +19°C° 0 mm 2 m/S 684 mmHg 44%
    02:00 +18°C° 0 mm 2 m/S 684 mmHg 45%
    03:00 +19°C° 0 mm 1 m/S 684 mmHg 46%
    04:00 +19°C° 0 mm 1 m/S 684 mmHg 44%
    05:00 +20°C° 0 mm 1 m/S 684 mmHg 42%
    06:00 +21°C° 0 mm 1 m/S 685 mmHg 40%
    07:00 +22°C° 0 mm 1 m/S 685 mmHg 35%
    08:00 +24°C° 0 mm 1 m/S 685 mmHg 30%
    09:00 +25°C° 0 mm 2 m/S 685 mmHg 24%
    10:00 +26°C° 0 mm 2 m/S 685 mmHg 22%
    11:00 +27°C° 0 mm 2 m/S 685 mmHg 20%
    12:00 +28°C° 0 mm 2 m/S 684 mmHg 18%
    13:00 +29°C° 0 mm 2 m/S 684 mmHg 17%
    14:00 +29°C° 0 mm 2 m/S 684 mmHg 17%
    15:00 +30°C° 0 mm 3 m/S 684 mmHg 16%
    16:00 +29°C° 0 mm 3 m/S 684 mmHg 17%
    17:00 +28°C° 0 mm 3 m/S 684 mmHg 19%
    18:00 +28°C° 0 mm 3 m/S 684 mmHg 21%
    19:00 +26°C° 0 mm 3 m/S 684 mmHg 26%
    20:00 +24°C° 0 mm 3 m/S 684 mmHg 32%
    21:00 +21°C° 0 mm 2 m/S 685 mmHg 38%
    22:00 +20°C° 0 mm 2 m/S 685 mmHg 40%
    23:00 +19°C° 0 mm 2 m/S 685 mmHg 43%

    2 Juni, Freitag

    Zeit Temperatur Niederschläge Wind Luftdruck Luftfeuchtigkeit
    00:00 +19°C° 0 mm 2 m/S 685 mmHg 45%
    01:00 +19°C° 0 mm 1 m/S 685 mmHg 47%
    02:00 +19°C° 0 mm 1 m/S 685 mmHg 49%
    03:00 +18°C° 0 mm 1 m/S 685 mmHg 50%
    04:00 +19°C° 0 mm 1 m/S 685 mmHg 49%
    05:00 +19°C° 0 mm 1 m/S 685 mmHg 48%
    06:00 +20°C° 0 mm 1 m/S 686 mmHg 46%
    07:00 +21°C° 0 mm 1 m/S 686 mmHg 42%
    08:00 +23°C° 0 mm 2 m/S 686 mmHg 38%
    09:00 +24°C° 0 mm 2 m/S 686 mmHg 34%
    10:00 +25°C° 0 mm 2 m/S 686 mmHg 31%
    11:00 +27°C° 0 mm 2 m/S 686 mmHg 29%
    12:00 +28°C° 0 mm 2 m/S 686 mmHg 27%
    13:00 +28°C° 0,1 mm 2 m/S 685 mmHg 25%
    14:00 +29°C° 0,1 mm 2 m/S 685 mmHg 24%
    15:00 +29°C° 0,1 mm 2 m/S 685 mmHg 23%
    16:00 +29°C° 0 mm 2 m/S 685 mmHg 24%
    17:00 +28°C° 0 mm 2 m/S 685 mmHg 25%
    18:00 +28°C° 0 mm 2 m/S 685 mmHg 25%
    19:00 +26°C° 0 mm 2 m/S 686 mmHg 30%
    20:00 +24°C° 0 mm 2 m/S 686 mmHg 35%
    21:00 +21°C° 0 mm 2 m/S 686 mmHg 40%
    22:00 +20°C° 0 mm 2 m/S 686 mmHg 43%
    23:00 +20°C° 0 mm 2 m/S 686 mmHg 46%

    3 Juni, Samstag

    Zeit Temperatur Niederschläge Wind Luftdruck Luftfeuchtigkeit
    00:00 +19°C° 0 mm 2 m/S 686 mmHg 49%
    01:00 +18°C° 0 mm 2 m/S 686 mmHg 52%
    02:00 +18°C° 0 mm 2 m/S 686 mmHg 54%
    03:00 +17°C° 0 mm 2 m/S 686 mmHg 56%
    04:00 +18°C° 0 mm 2 m/S 687 mmHg 55%
    05:00 +18°C° 0 mm 2 m/S 687 mmHg 54%
    06:00 +20°C° 0 mm 1 m/S 688 mmHg 54%
    07:00 +21°C° 0 mm 1 m/S 688 mmHg 49%
    08:00 +23°C° 0 mm 2 m/S 688 mmHg 44%
    09:00 +25°C° 0 mm 2 m/S 688 mmHg 40%
    10:00 +26°C° 0 mm 2 m/S 688 mmHg 36%
    11:00 +27°C° 0 mm 2 m/S 688 mmHg 33%
    12:00 +28°C° 0 mm 2 m/S 688 mmHg 29%
    13:00 +29°C° 0,1 mm 2 m/S 688 mmHg 28%
    14:00 +29°C° 0,1 mm 2 m/S 687 mmHg 27%
    15:00 +30°C° 0,1 mm 2 m/S 687 mmHg 25%
    16:00 +29°C° 0,1 mm 3 m/S 687 mmHg 27%
    17:00 +28°C° 0,1 mm 3 m/S 687 mmHg 30%
    18:00 +28°C° 0,1 mm 3 m/S 687 mmHg 32%
    19:00 +26°C° 0,1 mm 3 m/S 687 mmHg 38%
    20:00 +24°C° 0,1 mm 2 m/S 688 mmHg 45%
    21:00 +21°C° 0,1 mm 2 m/S 688 mmHg 51%
    22:00 +21°C° 0,1 mm 2 m/S 688 mmHg 55%
    23:00 +20°C° 0,1 mm 2 m/S 688 mmHg 58%

    4 Juni, Sonntag

    Zeit Temperatur Niederschläge Wind Luftdruck Luftfeuchtigkeit
    00:00 +20°C° 0,1 mm 1 m/S 688 mmHg 62%
    01:00 +20°C° 0 mm 1 m/S 687 mmHg 63%
    02:00 +19°C° 0 mm 1 m/S 687 mmHg 65%
    03:00 +19°C° 0 mm 1 m/S 687 mmHg 66%
    04:00 +19°C° 0 mm 1 m/S 688 mmHg 64%
    05:00 +20°C° 0 mm 1 m/S 688 mmHg 62%
    06:00 +20°C° 0 mm 1 m/S 689 mmHg 60%
    07:00 +22°C° 0 mm 1 m/S 689 mmHg 54%
    08:00 +23°C° 0 mm 1 m/S 689 mmHg 47%
    09:00 +25°C° 0 mm 1 m/S 689 mmHg 41%
    10:00 +26°C° 0 mm 1 m/S 689 mmHg 37%
    11:00 +27°C° 0 mm 1 m/S 689 mmHg 34%
    12:00 +29°C° 0 mm 2 m/S 689 mmHg 31%
    13:00 +29°C° 0 mm 2 m/S 689 mmHg 29%
    14:00 +30°C° 0 mm 2 m/S 689 mmHg 27%
    15:00 +30°C° 0 mm 2 m/S 688 mmHg 25%
    16:00 +30°C° 0 mm 2 m/S 688 mmHg 26%
    17:00 +29°C° 0 mm 3 m/S 689 mmHg 27%
    18:00 +29°C° 0 mm 3 m/S 689 mmHg 29%
    19:00 +27°C° 0 mm 3 m/S 689 mmHg 35%
    20:00 +25°C° 0 mm 2 m/S 689 mmHg 42%
    21:00 +23°C° 0 mm 2 m/S 689 mmHg 48%
    22:00 +21°C° 0 mm 2 m/S 689 mmHg 51%
    23:00 +20°C° 0 mm 2 m/S 689 mmHg 54%
    Mehr zeigen